Weather History for Adana Incirlik AFB, Turkey

Change the Weather History Date:

Sunday, February 17, 2013

  Actual Average Record
Temperature  
Mean Temperature 53 °F -  
Max Temperature 64 °F 64 °F 68 °F (1997)
Min Temperature 42 °F 46 °F 28 °F (2006)
Degree Days  
Heating Degree Days 12    
Growing Degree Days 3 (Base 50)    
Moisture  
Dew Point 44 °F    
Average Humidity 77    
Maximum Humidity 100    
Minimum Humidity 38    
Precipitation  
Precipitation 0.01 in - - ()
Sea Level Pressure  
Sea Level Pressure 29.93 in    
Wind  
Wind Speed 6 mph ()    
Max Wind Speed 14 mph    
Max Gust Speed -    
Visibility 6.3 miles    
Events      
Averages and records for this station are not official NWS values.
T = Trace of Precipitation, MM = Missing Value Source: Averaged Metar Reports

Daily Weather History Graph

Daily Weather History Graph

Search for Another Location

Airport:

Trip Planner

Search our weather history database for the weather conditions in past years. The results will help you decide how hot, cold, wet, or windy it might be!

Date:

Astronomy

Feb. 17, 2013 Rise Set
Actual Time 6:24 AM EET 5:20 PM EET
Civil Twilight 5:58 AM EET 5:46 PM EET
Nautical Twilight 5:27 AM EET 6:17 PM EET
Astronomical Twilight 4:57 AM EET 6:47 PM EET
Moon 10:14 AM EET (2/17) No Moon Set
Length of Visible Light 11h 48m
Length of Day
10h 55m
Waxing Crescent, 46% of the Moon is Illuminated
Feb 17
Waxing Crescent
Feb 17
First Quarter
Feb 25
Full
Mar 4
Last Quarter
Mar 11
New

Hourly Weather History & Observations

Time (EET) Temp. Windchill Dew Point Humidity Pressure Visibility Wind Dir Wind Speed Gust Speed Precip Events Conditions
12:20 AM 48.2 °F - 46.4 °F 93% 29.95 in 6.2 mi North 6.9 mph - N/A   Scattered Clouds
12:50 AM 46.4 °F 44.3 °F 44.6 °F 93% 29.95 in 6.2 mi NNE 4.6 mph - N/A   Scattered Clouds
1:20 AM 46.4 °F 42.4 °F 44.6 °F 93% 29.95 in 6.2 mi NE 8.1 mph - N/A   Scattered Clouds
1:50 AM 46.4 °F 43.5 °F 44.6 °F 93% 29.95 in 6.2 mi NNE 5.8 mph - N/A   Scattered Clouds
2:00 AM 46 °F - 45 °F 93% 29.95 in 6 mi NNE 5.8 mph - -   Partly Cloudy
2:20 AM 46.4 °F 42.4 °F 44.6 °F 93% 29.95 in 6.2 mi NE 8.1 mph - N/A   Scattered Clouds
2:50 AM 44.6 °F 40.2 °F 44.6 °F 100% 29.92 in 6.2 mi NNE 8.1 mph - N/A   Scattered Clouds
3:20 AM 44.6 °F 40.2 °F 44.6 °F 100% 29.92 in 6.2 mi NNE 8.1 mph - N/A   Scattered Clouds
3:50 AM 44.6 °F 39.7 °F 42.8 °F 93% 29.92 in 6.2 mi North 9.2 mph - N/A   Scattered Clouds
4:20 AM 44.6 °F 43.1 °F 42.8 °F 93% 29.92 in 6.2 mi NE 3.5 mph - N/A   Scattered Clouds
4:50 AM 44.6 °F 41.4 °F 42.8 °F 93% 29.92 in 6.2 mi North 5.8 mph - N/A   Scattered Clouds
5:20 AM 42.8 °F 38.6 °F 41.0 °F 93% 29.92 in 6.2 mi North 6.9 mph - N/A   Scattered Clouds
5:50 AM 44.6 °F 41.4 °F 42.8 °F 93% 29.92 in 6.2 mi North 5.8 mph - N/A   Scattered Clouds
6:20 AM 46.4 °F 44.3 °F 42.8 °F 87% 29.92 in 6.2 mi North 4.6 mph - N/A   Scattered Clouds
6:50 AM 46.4 °F 42.9 °F 42.8 °F 87% 29.92 in 6.2 mi North 6.9 mph - N/A   Scattered Clouds
7:20 AM 46.4 °F 44.3 °F 42.8 °F 87% 29.95 in 6.2 mi North 4.6 mph - N/A   Scattered Clouds
7:50 AM 48.2 °F - 42.8 °F 82% 29.95 in 6.2 mi North 3.5 mph - N/A   Scattered Clouds
8:00 AM 49 °F - 42 °F 70% 29.96 in 12 mi North 3.5 mph - -   Partly Cloudy
8:20 AM 51.8 °F - 44.6 °F 76% 29.95 in 6.2 mi NE 4.6 mph - N/A   Scattered Clouds
8:50 AM 55.4 °F - 44.6 °F 67% 29.95 in 6.2 mi NE 6.9 mph - N/A   Scattered Clouds
9:20 AM 55.4 °F - 42.8 °F 63% 29.95 in 6.2 mi NE 5.8 mph - N/A   Scattered Clouds
9:50 AM 57.2 °F - 44.6 °F 63% 29.95 in 6.2 mi NE 6.9 mph - N/A   Scattered Clouds
10:20 AM 57.2 °F - 44.6 °F 63% 29.95 in 6.2 mi NNE 3.5 mph - N/A   Scattered Clouds
10:50 AM 59.0 °F - 46.4 °F 63% 29.95 in 6.2 mi ESE 2.3 mph - N/A   Scattered Clouds
11:20 AM 60.8 °F - 46.4 °F 59% 29.95 in 6.2 mi NNE 2.3 mph - N/A   Scattered Clouds
11:50 AM 59.0 °F - 46.4 °F 63% 29.95 in 6.2 mi North 2.3 mph - N/A   Scattered Clouds
12:20 PM 60.8 °F - 48.2 °F 63% 29.92 in 6.2 mi North 4.6 mph - N/A   Scattered Clouds
12:50 PM 60.8 °F - 44.6 °F 55% 29.92 in 6.2 mi NNW 3.5 mph - N/A   Scattered Clouds
1:20 PM 62.6 °F - 44.6 °F 52% 29.92 in 6.2 mi ESE 2.3 mph - N/A   Scattered Clouds
1:50 PM 62.6 °F - 42.8 °F 48% 29.92 in 6.2 mi SSW 4.6 mph - N/A   Scattered Clouds
2:00 PM 63 °F - 44 °F 38% 29.91 in 6 mi SSW 4.6 mph - -   Partly Cloudy
2:20 PM 62.6 °F - 44.6 °F 52% 29.92 in 6.2 mi SW 6.9 mph - N/A   Scattered Clouds
2:50 PM 62.6 °F - 42.8 °F 48% 29.92 in 6.2 mi South 8.1 mph - N/A   Scattered Clouds
3:20 PM 62.6 °F - 48.2 °F 59% 29.92 in 6.2 mi South 12.7 mph - N/A   Scattered Clouds
3:50 PM 60.8 °F - 46.4 °F 59% 29.92 in 6.2 mi SSW 13.8 mph - N/A   Scattered Clouds
4:20 PM 60.8 °F - 44.6 °F 55% 29.92 in 6.2 mi SSW 10.4 mph - N/A   Scattered Clouds
4:50 PM 59.0 °F - 44.6 °F 59% 29.92 in 6.2 mi SSW 9.2 mph - N/A   Scattered Clouds
5:20 PM 55.4 °F - 44.6 °F 67% 29.92 in 6.2 mi SSW 5.8 mph - N/A   Scattered Clouds
5:50 PM 55.4 °F - 44.6 °F 67% 29.92 in 6.2 mi SSW 5.8 mph - N/A   Scattered Clouds
6:20 PM 53.6 °F - 44.6 °F 72% 29.92 in 6.2 mi SSW 2.3 mph - N/A   Scattered Clouds
6:50 PM 53.6 °F - 44.6 °F 72% 29.95 in 6.2 mi SW 2.3 mph - N/A   Scattered Clouds
7:20 PM 51.8 °F - 44.6 °F 76% 29.95 in 6.2 mi North 2.3 mph - N/A   Scattered Clouds
7:50 PM 50.0 °F - 44.6 °F 82% 29.95 in 6.2 mi NNE 4.6 mph - N/A   Scattered Clouds
8:00 PM 50 °F - 44 °F 75% 29.95 in 6 mi NNE 4.6 mph - -   Partly Cloudy
8:20 PM 46.4 °F 43.5 °F 44.6 °F 93% 29.92 in 6.2 mi NE 5.8 mph - N/A   Scattered Clouds
8:50 PM 44.6 °F 40.7 °F 44.6 °F 100% 29.92 in 6.2 mi North 6.9 mph - N/A   Scattered Clouds
9:20 PM 44.6 °F 39.7 °F 44.6 °F 100% 29.92 in 6.2 mi North 9.2 mph - N/A   Scattered Clouds
9:50 PM 46.4 °F 42.9 °F 44.6 °F 93% 29.95 in 6.2 mi ENE 6.9 mph - N/A   Scattered Clouds
10:20 PM 46.4 °F 41.9 °F 44.6 °F 93% 29.95 in 6.2 mi ENE 9.2 mph - N/A   Scattered Clouds
10:50 PM 46.4 °F 41.9 °F 46.4 °F 100% 29.95 in 6.2 mi NE 9.2 mph - N/A   Scattered Clouds
11:20 PM 50.0 °F - 42.8 °F 76% 29.95 in 6.2 mi ENE 10.4 mph - N/A   Mostly Cloudy
11:50 PM 50.0 °F - 42.8 °F 76% 29.92 in 6.2 mi East 8.1 mph - N/A   Mostly Cloudy